Wind_Speed
39 37 40 41 44 43 41 38 34 24 29 26 27 33 34 35 36 38 40 37 33 32 34 34 37 39 37 35 33 32 33 32 32 35 32 29 27 25
45 43 42 45 43 44 42 42 39 35 26 29 25 24 34 35 37 40 40 38 38 36 36 37 38 41 41 38 36 34 35 35 34 39 33 30 27 27
42 42 42 45 45 45 44 40 39 43 39 31 25 26 29 31 38 35 33 37 43 42 41 41 42 43 43 40 39 37 37 38 35 42 34 33 31 30
35 40 42 43 43 42 41 40 40 40 42 35 29 26 33 29 26 29 28 33 32 39 46 45 43 44 45 43 41 41 41 41 39 44 40 36 34 34
26 31 34 37 43 42 43 37 41 42 41 46 32 32 37 36 29 30 29 32 32 34 36 47 48 46 46 46 44 43 45 44 43 44 41 37 36 38
22 30 30 33 40 33 40 42 36 40 41 42 41 41 40 39 35 34 33 34 34 34 36 35 43 50 51 50 48 47 48 47 45 46 45 37 41 43
29 30 29 36 32 35 35 42 38 40 41 40 42 43 43 41 40 34 34 33 35 32 35 37 41 46 53 54 53 51 52 50 47 48 44 43 45 48
22 24 32 29 33 29 32 37 42 42 42 45 45 46 45 42 39 39 34 36 36 33 36 38 40 44 51 55 56 55 54 51 50 48 43 48 48 48
21 24 25 26 32 30 32 29 38 32 42 46 48 46 44 38 40 38 36 33 35 31 28 32 36 41 46 51 56 59 59 53 51 53 49 54 53 44
20 24 25 25 27 31 29 31 35 34 41 52 46 41 39 33 36 33 32 34 34 31 34 31 32 35 39 45 51 58 63 60 54 63 53 57 48 39
22 22 24 26 25 29 31 35 34 33 36 46 56 42 37 31 31 29 31 32 31 31 33 32 32 34 36 39 43 48 54 58 60 61 52 43 39 33
25 26 23 24 28 28 32 33 36 36 31 35 38 39 32 31 34 31 30 33 31 29 31 33 33 34 28 34 38 41 42 41 37 36 35 33 32 33
28 29 28 25 27 29 31 35 35 35 31 34 34 39 40 42 38 36 33 30 32 33 30 31 35 36 34 30 39 39 39 37 35 32 31 32 32 32
30 30 30 30 28 28 30 33 36 36 37 36 36 37 41 45 39 37 34 34 33 34 31 31 31 37 43 33 33 42 39 35 33 32 30 30 30 33
26 28 28 29 30 30 29 30 32 35 35 39 40 43 43 46 42 38 38 35 35 32 29 28 26 27 37 43 41 39 44 37 33 32 31 32 33 33
27 27 26 26 25 28 27 27 28 29 32 37 36 34 36 37 42 43 38 39 35 32 29 26 23 23 30 38 38 37 41 36 37 33 31 30 29 29
30 28 26 24 24 23 23 25 25 26 28 30 31 33 35 36 39 36 38 40 38 35 31 26 24 25 24 27 31 31 37 38 31 35 35 33 31 29
26 24 22 23 22 22 22 21 21 22 24 25 28 29 33 35 40 38 38 36 36 32 29 29 27 27 23 22 24 30 33 35 34 36 34 31 28 25
16 19 19 19 20 19 19 19 19 19 20 21 22 25 29 34 36 36 36 34 32 29 29 29 28 29 30 25 20 28 34 34 33 35 32 27 21 19
16 16 19 18 18 18 17 17 16 16 17 17 18 21 24 28 31 32 31 32 32 31 30 28 27 28 31 33 26 27 26 30 32 32 27 19 15 15
19 17 18 17 15 15 14 13 13 12 14 13 16 17 20 23 27 27 28 31 31 33 32 27 24 28 30 31 34 32 26 23 24 25 22 23 21 17
19 18 17 15 13 13 10 9 9 8 10 10 13 16 18 20 23 24 27 30 32 34 36 32 28 27 27 34 38 37 32 27 23 21 21 17 17 12
16 16 16 16 14 10 8 6 6 4 7 8 11 14 17 21 23 27 33 36 37 35 35 33 29 27 29 34 36 35 31 27 23 20 19 19 16 14
Wind_Direction
238 237 244 258 262 256 250 244 237 228 223 225 224 220 218 221 225 228 231 233 225 226 223 226 233 232 233 234 231 228 222 221 229 231 234 242 250 248
246 247 250 253 257 247 249 249 244 238 238 241 243 229 219 220 224 228 233 236 231 232 233 228 234 233 232 233 230 229 222 223 232 231 235 243 251 253
244 250 256 255 253 251 245 248 246 240 245 241 236 229 234 225 227 232 237 236 234 235 234 236 233 232 232 233 229 229 226 227 233 237 241 248 252 255
247 249 249 249 245 247 250 251 245 247 243 242 231 220 229 229 232 232 239 239 241 241 235 237 236 236 233 233 231 229 230 231 232 239 243 246 253 255
252 254 255 257 249 250 246 250 251 248 247 243 235 233 225 229 239 239 243 237 244 244 242 241 238 231 233 233 233 234 234 235 238 241 238 244 251 255
251 251 258 257 253 255 247 254 252 251 249 242 233 234 236 239 239 242 243 242 245 246 247 248 246 236 231 230 232 234 236 238 238 237 243 249 255 256
248 253 257 257 257 258 257 252 254 252 250 237 229 231 234 239 240 246 246 243 244 250 250 251 248 244 234 231 232 233 235 235 237 237 244 253 256 255
264 260 255 259 256 259 255 259 259 257 250 240 230 237 241 242 248 245 243 240 245 254 250 253 252 245 236 231 232 234 234 235 237 240 243 248 251 252
275 267 265 258 252 263 257 260 255 256 260 251 235 245 245 250 254 242 242 249 250 259 259 256 253 250 246 236 229 237 232 232 237 239 239 242 246 239
277 274 271 266 256 254 265 262 257 247 260 251 241 247 245 248 250 247 251 249 249 252 252 252 252 246 243 236 229 225 221 223 227 235 232 238 233 228
287 283 282 277 273 264 257 258 263 261 258 245 248 244 240 246 247 241 243 246 240 243 246 247 244 235 230 227 225 222 215 215 219 225 222 218 224 228
287 290 287 279 277 269 260 256 264 261 260 259 263 242 244 250 246 249 249 245 237 239 243 232 236 228 214 221 221 221 218 219 220 220 223 226 221 208
296 292 291 289 273 272 267 259 258 260 251 256 246 249 249 245 240 249 243 246 246 247 250 241 234 227 215 212 212 216 217 215 216 216 216 212 209 204
299 295 292 290 286 273 272 266 257 254 249 251 250 245 251 234 245 244 246 245 253 247 253 249 242 232 223 210 204 212 214 214 213 209 206 205 202 198
302 297 295 291 290 284 271 267 261 256 253 250 249 244 251 249 240 238 243 238 240 242 243 242 243 243 230 226 219 210 206 209 209 207 204 201 199 197
306 302 297 293 292 292 286 273 264 259 251 252 250 248 246 241 250 231 232 231 228 228 232 235 234 233 232 230 230 213 212 199 203 201 199 198 200 200
312 307 302 299 296 291 286 279 269 264 256 249 245 248 247 249 240 232 230 222 221 220 217 215 212 220 228 235 218 216 209 206 201 193 192 194 198 201
313 315 308 302 297 294 290 285 275 267 261 251 246 240 240 234 225 223 225 220 217 212 213 206 203 197 198 198 219 206 199 197 192 194 195 195 197 198
324 315 306 304 300 295 291 286 282 271 268 258 249 238 229 223 221 215 213 212 207 203 199 199 196 198 184 166 174 195 190 186 187 188 191 192 191 194
332 327 315 310 307 300 295 289 286 277 266 259 246 235 225 221 214 207 206 204 200 188 183 186 187 189 190 174 158 173 192 184 184 179 177 168 177 189
344 341 326 322 317 310 303 295 285 276 263 251 238 230 220 212 205 203 198 195 189 180 169 165 169 173 180 175 150 149 154 160 169 172 171 178 183 191
353 347 334 335 332 323 313 306 289 271 255 235 227 214 208 204 196 187 184 178 167 161 155 153 164 172 170 163 147 152 150 153 159 167 170 168 168 179
355 349 349 350 343 333 328 310 272 246 224 210 203 195 186 178 174 169 163 160 157 155 148 139 137 139 149 163 159 155 155 159 166 169 171 179 186 187
Height
1450 1453 1456 1459 1459 1461 1465 1465 1468 1468 1468 1467 1471 1474 1477 1480 1482 1485 1487 1491 1495 1499 1502 1505 1509 1514 1517 1521 1525 1528 1531 1535 1538 1539 1542 1544 1546 1548
1443 1446 1447 1449 1450 1452 1455 1456 1460 1462 1462 1461 1462 1465 1468 1471 1474 1477 1479 1483 1487 1491 1494 1498 1501 1504 1509 1513 1517 1521 1525 1528 1531 1532 1535 1538 1540 1541
1433 1436 1438 1441 1442 1443 1445 1447 1450 1453 1454 1458 1459 1460 1460 1463 1466 1469 1472 1475 1479 1483 1486 1490 1493 1497 1501 1506 1510 1514 1518 1521 1524 1526 1529 1532 1533 1534
1425 1428 1430 1431 1432 1434 1436 1438 1441 1443 1448 1449 1452 1453 1453 1454 1459 1461 1464 1467 1470 1473 1478 1481 1484 1489 1493 1497 1502 1506 1510 1513 1516 1520 1523 1525 1527 1528
1418 1420 1422 1423 1424 1426 1426 1429 1431 1433 1436 1440 1443 1444 1446 1446 1451 1454 1456 1459 1462 1465 1468 1472 1474 1479 1485 1490 1494 1498 1501 1505 1509 1512 1511 1517 1519 1521
1410 1414 1415 1417 1417 1418 1418 1420 1422 1422 1426 1430 1432 1432 1437 1439 1443 1446 1449 1451 1454 1457 1459 1463 1466 1469 1473 1478 1483 1487 1492 1496 1500 1503 1506 1509 1512 1512
1404 1406 1407 1409 1409 1410 1411 1412 1414 1416 1418 1420 1421 1422 1426 1430 1432 1437 1440 1443 1445 1449 1450 1453 1456 1459 1461 1466 1471 1476 1480 1485 1490 1494 1498 1502 1503 1503
1397 1399 1401 1401 1402 1401 1402 1404 1406 1409 1410 1412 1413 1414 1418 1422 1427 1429 1431 1433 1437 1438 1441 1444 1446 1448 1451 1453 1457 1462 1468 1475 1481 1485 1489 1492 1493 1495
1389 1392 1393 1392 1393 1393 1393 1395 1397 1399 1402 1403 1404 1407 1410 1412 1419 1424 1421 1425 1426 1429 1432 1434 1436 1438 1441 1444 1447 1451 1456 1462 1470 1474 1477 1479 1483 1485
1384 1387 1386 1384 1383 1384 1384 1386 1389 1390 1393 1393 1393 1399 1401 1404 1412 1415 1415 1415 1418 1421 1423 1425 1428 1430 1433 1436 1438 1441 1445 1446 1455 1461 1464 1468 1471 1478
1378 1376 1375 1374 1373 1373 1373 1375 1378 1381 1385 1382 1383 1388 1391 1396 1400 1403 1403 1407 1408 1412 1414 1417 1420 1423 1426 1429 1432 1435 1439 1442 1444 1449 1454 1460 1465 1472
1370 1370 1368 1366 1364 1364 1364 1365 1366 1369 1373 1375 1375 1364 1375 1383 1389 1393 1395 1397 1400 1403 1405 1410 1413 1417 1423 1425 1428 1432 1437 1443 1448 1450 1453 1456 1460 1465
1360 1359 1359 1358 1356 1354 1354 1355 1357 1360 1363 1365 1364 1369 1373 1375 1379 1383 1385 1388 1391 1394 1398 1400 1404 1409 1414 1415 1421 1426 1431 1435 1439 1444 1448 1452 1455 1460
1355 1353 1351 1349 1348 1348 1347 1348 1350 1352 1354 1357 1359 1363 1367 1365 1370 1373 1377 1379 1383 1387 1391 1393 1396 1400 1403 1408 1412 1417 1423 1429 1434 1439 1444 1449 1454 1458
1352 1348 1345 1343 1341 1339 1339 1339 1341 1343 1345 1347 1349 1352 1357 1359 1357 1363 1367 1370 1374 1378 1382 1385 1389 1394 1399 1401 1403 1408 1416 1423 1429 1435 1440 1445 1450 1454
1346 1343 1341 1338 1336 1333 1332 1331 1332 1334 1335 1336 1338 1341 1342 1345 1350 1352 1356 1361 1364 1369 1374 1378 1384 1388 1392 1397 1402 1405 1410 1415 1423 1430 1437 1443 1449 1453
1342 1339 1336 1333 1331 1328 1326 1324 1323 1325 1325 1327 1328 1331 1333 1337 1343 1342 1347 1350 1355 1359 1366 1373 1378 1383 1389 1394 1398 1403 1407 1413 1420 1427 1433 1439 1445 1449
1340 1337 1334 1331 1328 1325 1323 1321 1319 1319 1320 1320 1322 1322 1326 1329 1332 1334 1341 1345 1348 1352 1359 1366 1371 1379 1385 1392 1397 1399 1405 1410 1417 1424 1432 1437 1442 1446
1339 1336 1335 1330 1326 1322 1320 1318 1317 1315 1316 1315 1316 1318 1320 1325 1327 1330 1335 1338 1344 1347 1354 1361 1367 1374 1377 1386 1395 1400 1402 1407 1412 1421 1429 1436 1441 1446
1338 1333 1333 1328 1323 1319 1317 1315 1312 1313 1312 1313 1313 1315 1317 1320 1323 1324 1328 1336 1341 1343 1350 1359 1366 1371 1375 1380 1388 1398 1405 1409 1414 1421 1428 1436 1441 1444
1338 1332 1332 1327 1322 1318 1315 1312 1313 1310 1312 1310 1312 1312 1315 1318 1317 1320 1324 1334 1341 1344 1348 1358 1365 1370 1374 1379 1389 1397 1405 1412 1418 1422 1428 1434 1438 1442
1336 1336 1334 1328 1322 1318 1315 1313 1311 1309 1313 1308 1310 1311 1314 1316 1320 1323 1330 1337 1344 1349 1349 1354 1363 1370 1376 1382 1388 1394 1403 1411 1418 1424 1427 1432 1437 1439
1339 1337 1332 1327 1323 1320 1317 1314 1313 1310 1312 1308 1310 1314 1315 1319 1323 1326 1333 1340 1343 1353 1354 1355 1365 1373 1378 1384 1389 1396 1403 1410 1417 1422 1426 1430 1434 1437